When you browse on this site, cookies collect data to enhance your experience and personalize the content and advertising you see.
Visit our Privacy Policy to learn more. By continuing to use the site, you agree to this use of cookies and data.

Previsão horária em Inverclaide

Hoje, 8 Julho, Quarta-feira

Tempo Temperatura Precipitação Vento Pressão Humidade
00:00 +10°C° 0 mm 1 m/s 760 mmHg 92%
01:00 +9°C° 0 mm 1 m/s 760 mmHg 93%
02:00 +8°C° 0 mm 1 m/s 760 mmHg 93%
03:00 +8°C° 0 mm 1 m/s 760 mmHg 94%
04:00 +8°C° 0 mm 0 m/s 760 mmHg 93%
05:00 +8°C° 0 mm 0 m/s 760 mmHg 91%
06:00 +9°C° 0 mm 0 m/s 760 mmHg 90%
07:00 +10°C° 0 mm 0 m/s 760 mmHg 85%
08:00 +13°C° 0 mm 1 m/s 760 mmHg 79%
09:00 +14°C° 0 mm 1 m/s 760 mmHg 74%
10:00 +15°C° 0.1 mm 1 m/s 760 mmHg 70%
11:00 +16°C° 0.1 mm 1 m/s 760 mmHg 67%
12:00 +18°C° 0.1 mm 1 m/s 760 mmHg 63%
13:00 +18°C° 0.1 mm 1 m/s 760 mmHg 64%
14:00 +16°C° 0.1 mm 2 m/s 759 mmHg 66%
15:00 +16°C° 0.1 mm 2 m/s 759 mmHg 67%
16:00 +16°C° 0.2 mm 2 m/s 759 mmHg 70%
17:00 +15°C° 0.2 mm 2 m/s 759 mmHg 73%
18:00 +15°C° 0.2 mm 2 m/s 759 mmHg 76%
19:00 +14°C° 0.1 mm 2 m/s 759 mmHg 80%
20:00 +13°C° 0.1 mm 2 m/s 759 mmHg 83%
21:00 +12°C° 0.1 mm 1 m/s 759 mmHg 87%
22:00 +12°C° 0.1 mm 1 m/s 759 mmHg 88%
23:00 +11°C° 0.1 mm 1 m/s 759 mmHg 90%

Amanhã, 9 Julho, Quinta-feira

Tempo Temperatura Precipitação Vento Pressão Humidade
00:00 +11°C° 0.1 mm 1 m/s 759 mmHg 91%
01:00 +11°C° 0 mm 1 m/s 759 mmHg 91%
02:00 +10°C° 0 mm 0 m/s 758 mmHg 92%
03:00 +10°C° 0 mm 0 m/s 758 mmHg 93%
04:00 +10°C° 0 mm 0 m/s 758 mmHg 91%
05:00 +11°C° 0 mm 0 m/s 758 mmHg 89%
06:00 +11°C° 0 mm 0 m/s 758 mmHg 88%
07:00 +13°C° 0 mm 1 m/s 758 mmHg 85%
08:00 +13°C° 0 mm 1 m/s 758 mmHg 83%
09:00 +14°C° 0 mm 1 m/s 759 mmHg 81%
10:00 +15°C° 0.2 mm 1 m/s 758 mmHg 77%
11:00 +16°C° 0.2 mm 1 m/s 758 mmHg 73%
12:00 +17°C° 0.2 mm 2 m/s 758 mmHg 69%
13:00 +16°C° 0.4 mm 2 m/s 758 mmHg 70%
14:00 +16°C° 0.4 mm 2 m/s 758 mmHg 72%
15:00 +16°C° 0.4 mm 2 m/s 758 mmHg 73%
16:00 +15°C° 0.2 mm 2 m/s 758 mmHg 76%
17:00 +14°C° 0.2 mm 2 m/s 758 mmHg 79%
18:00 +13°C° 0.2 mm 2 m/s 758 mmHg 82%
19:00 +13°C° 0.1 mm 1 m/s 758 mmHg 84%
20:00 +12°C° 0.1 mm 1 m/s 758 mmHg 87%
21:00 +11°C° 0.1 mm 1 m/s 759 mmHg 90%
22:00 +11°C° 0.1 mm 1 m/s 759 mmHg 90%
23:00 +10°C° 0.1 mm 1 m/s 759 mmHg 90%

Depois de amanhã, 10 Julho, Sexta-feira

Tempo Temperatura Precipitação Vento Pressão Humidade
00:00 +10°C° 0.1 mm 1 m/s 759 mmHg 90%
01:00 +10°C° 0 mm 1 m/s 759 mmHg 90%
02:00 +9°C° 0 mm 1 m/s 759 mmHg 90%
03:00 +9°C° 0 mm 1 m/s 759 mmHg 90%
04:00 +10°C° 0 mm 1 m/s 759 mmHg 89%
05:00 +10°C° 0 mm 1 m/s 759 mmHg 87%
06:00 +10°C° 0 mm 2 m/s 759 mmHg 86%
07:00 +12°C° 0.1 mm 2 m/s 759 mmHg 81%
08:00 +13°C° 0.1 mm 2 m/s 760 mmHg 75%
09:00 +14°C° 0.1 mm 2 m/s 760 mmHg 70%
10:00 +14°C° 0.2 mm 3 m/s 760 mmHg 68%
11:00 +14°C° 0.2 mm 3 m/s 760 mmHg 66%
12:00 +16°C° 0.2 mm 3 m/s 760 mmHg 64%
13:00 +15°C° 0.2 mm 4 m/s 760 mmHg 62%
14:00 +15°C° 0.2 mm 4 m/s 760 mmHg 61%
15:00 +15°C° 0.2 mm 5 m/s 760 mmHg 60%
16:00 +15°C° 0.1 mm 4 m/s 760 mmHg 63%
17:00 +14°C° 0.1 mm 4 m/s 761 mmHg 67%
18:00 +14°C° 0.1 mm 4 m/s 761 mmHg 70%
19:00 +13°C° 0.1 mm 4 m/s 761 mmHg 77%
20:00 +11°C° 0.1 mm 3 m/s 762 mmHg 83%
21:00 +10°C° 0.1 mm 3 m/s 762 mmHg 90%
22:00 +10°C° 0 mm 3 m/s 762 mmHg 91%
23:00 +9°C° 0 mm 3 m/s 763 mmHg 93%

11 Julho, Sábado

Tempo Temperatura Precipitação Vento Pressão Humidade
00:00 +8°C° 0 mm 3 m/s 763 mmHg 95%
01:00 +8°C° 0 mm 3 m/s 763 mmHg 95%
02:00 +8°C° 0 mm 3 m/s 763 mmHg 95%
03:00 +8°C° 0 mm 3 m/s 764 mmHg 95%
04:00 +9°C° 0 mm 3 m/s 764 mmHg 91%
05:00 +9°C° 0 mm 3 m/s 764 mmHg 87%
06:00 +10°C° 0 mm 3 m/s 764 mmHg 83%
07:00 +11°C° 0 mm 3 m/s 764 mmHg 78%
08:00 +12°C° 0 mm 3 m/s 764 mmHg 74%
09:00 +13°C° 0 mm 4 m/s 764 mmHg 70%
10:00 +14°C° 0.1 mm 4 m/s 764 mmHg 68%
11:00 +15°C° 0.1 mm 5 m/s 764 mmHg 65%
12:00 +16°C° 0.1 mm 5 m/s 765 mmHg 63%
13:00 +16°C° 0.1 mm 5 m/s 765 mmHg 63%
14:00 +16°C° 0.1 mm 5 m/s 765 mmHg 62%
15:00 +16°C° 0.1 mm 6 m/s 765 mmHg 62%
16:00 +15°C° 0 mm 5 m/s 765 mmHg 64%
17:00 +15°C° 0 mm 5 m/s 765 mmHg 66%
18:00 +14°C° 0 mm 5 m/s 765 mmHg 68%
19:00 +13°C° 0 mm 4 m/s 765 mmHg 73%
20:00 +12°C° 0 mm 4 m/s 766 mmHg 78%
21:00 +11°C° 0 mm 3 m/s 766 mmHg 84%
22:00 +10°C° 0 mm 3 m/s 766 mmHg 86%
23:00 +9°C° 0 mm 3 m/s 766 mmHg 89%

12 Julho, Domingo

Tempo Temperatura Precipitação Vento Pressão Humidade
00:00 +9°C° 0 mm 3 m/s 766 mmHg 92%
01:00 +8°C° 0 mm 3 m/s 766 mmHg 92%
02:00 +8°C° 0 mm 3 m/s 766 mmHg 92%
03:00 +8°C° 0 mm 3 m/s 766 mmHg 92%
04:00 +9°C° 0 mm 3 m/s 766 mmHg 88%
05:00 +10°C° 0 mm 3 m/s 766 mmHg 85%
06:00 +11°C° 0 mm 3 m/s 766 mmHg 81%
07:00 +12°C° 0 mm 3 m/s 765 mmHg 76%
08:00 +13°C° 0 mm 3 m/s 765 mmHg 71%
09:00 +15°C° 0 mm 2 m/s 765 mmHg 66%
10:00 +16°C° 0 mm 3 m/s 765 mmHg 63%
11:00 +17°C° 0 mm 3 m/s 765 mmHg 60%
12:00 +18°C° 0 mm 3 m/s 765 mmHg 57%
13:00 +16°C° 0.1 mm 3 m/s 764 mmHg 67%
14:00 +14°C° 0.1 mm 3 m/s 764 mmHg 76%
15:00 +14°C° 0.1 mm 2 m/s 764 mmHg 85%
16:00 +13°C° 0.4 mm 2 m/s 763 mmHg 88%
17:00 +13°C° 0.4 mm 2 m/s 763 mmHg 90%
18:00 +13°C° 0.4 mm 2 m/s 763 mmHg 93%
19:00 +13°C° 0.1 mm 2 m/s 763 mmHg 93%
20:00 +13°C° 0.1 mm 2 m/s 762 mmHg 93%
21:00 +13°C° 0.1 mm 2 m/s 762 mmHg 94%
22:00 +12°C° 0 mm 3 m/s 762 mmHg 94%
23:00 +12°C° 0 mm 3 m/s 761 mmHg 94%

13 Julho, Segunda-feira

Tempo Temperatura Precipitação Vento Pressão Humidade
00:00 +12°C° 0 mm 3 m/s 761 mmHg 94%
01:00 +12°C° 0 mm 3 m/s 761 mmHg 94%
02:00 +12°C° 0 mm 3 m/s 760 mmHg 95%
03:00 +13°C° 0 mm 2 m/s 760 mmHg 96%
04:00 +13°C° 0 mm 2 m/s 759 mmHg 95%
05:00 +14°C° 0 mm 2 m/s 759 mmHg 94%
06:00 +14°C° 0 mm 2 m/s 759 mmHg 94%
07:00 +15°C° 0 mm 2 m/s 759 mmHg 92%
08:00 +15°C° 0 mm 2 m/s 759 mmHg 90%
09:00 +16°C° 0 mm 2 m/s 758 mmHg 88%
10:00 +16°C° 0.1 mm 3 m/s 758 mmHg 84%
11:00 +17°C° 0.1 mm 3 m/s 758 mmHg 79%
12:00 +18°C° 0.1 mm 4 m/s 758 mmHg 75%
13:00 +18°C° 0.1 mm 4 m/s 757 mmHg 73%
14:00 +18°C° 0.1 mm 4 m/s 757 mmHg 72%
15:00 +18°C° 0.1 mm 4 m/s 757 mmHg 70%
16:00 +18°C° 0 mm 4 m/s 757 mmHg 71%
17:00 +18°C° 0 mm 3 m/s 757 mmHg 71%
18:00 +18°C° 0 mm 3 m/s 757 mmHg 72%
19:00 +17°C° 0 mm 3 m/s 757 mmHg 78%
20:00 +16°C° 0 mm 2 m/s 757 mmHg 83%
21:00 +15°C° 0 mm 2 m/s 757 mmHg 89%
22:00 +14°C° 0 mm 2 m/s 756 mmHg 91%
23:00 +14°C° 0 mm 2 m/s 756 mmHg 92%
Mostrar mais